Weather History for Dallas/Ft Worth, TX

Change the Weather History Date:

Friday, November 2, 2012

  Actual Average Record
Temperature  
Mean Temperature 71 °F 62 °F  
Max Temperature 87 °F 73 °F 87 °F (2012)
Min Temperature 55 °F 51 °F 28 °F (1991)
Degree Days  
Heating Degree Days 0 5  
Month to date heating degree days 0 10  
Since 1 July heating degree days 98 82  
Cooling Degree Days 6 2  
Month to date cooling degree days 11 4  
Year to date cooling degree days 3294 2727  
Growing Degree Days 21 (Base 50)    
Moisture  
Dew Point 51 °F    
Average Humidity 50    
Maximum Humidity 77    
Minimum Humidity 23    
Precipitation  
Precipitation 0.00 in 0.12 in 2.75 in (1946)
Month to date precipitation 0.00 0.24  
Year to date precipitation 29.26 31.12  
Snow  
Snow 0.00 in 0.00 in 0.60 in (1951)
Month to date snowfall 0.0 0.0  
Since 1 July snowfall 0.0 0.0  
Since 1 September snowfall 0.0 0.0  
Snow Depth 0.00 in    
Sea Level Pressure  
Sea Level Pressure 29.92 in    
Wind  
Wind Speed 11 mph (SSW)    
Max Wind Speed 22 mph    
Max Gust Speed 28 mph    
Visibility 10 miles    
Events      
T = Trace of Precipitation, MM = Missing Value Source: NWS Daily Summary

Daily Weather History Graph

Daily Weather History Graph

Search for Another Location

Airport:

Trip Planner

Search our weather history database for the weather conditions in past years. The results will help you decide how hot, cold, wet, or windy it might be!

Date:

Astronomy

Nov. 02, 2012 Rise Set
Actual Time 7:47 AM CDT 6:35 PM CDT
Civil Twilight 7:21 AM CDT 7:01 PM CDT
Nautical Twilight 6:52 AM CDT 7:30 PM CDT
Astronomical Twilight 6:23 AM CDT 7:59 PM CDT
Moon 9:30 PM CDT (11/2) 11:02 AM CDT (11/2)
Length of Visible Light 11h 39m
Length of Day
10h 48m
Waning Gibbous, 87% of the Moon is Illuminated
Nov 2
Waning Gibbous
Nov 6
Last Quarter
Nov 13
New
Nov 20
First Quarter
Nov 28
Full

Hourly Weather History & Observations

Time (CDT) Temp. Heat Index Dew Point Humidity Pressure Visibility Wind Dir Wind Speed Gust Speed Precip Events Conditions
12:53 AM 66.9 °F - 48.9 °F 52% 29.91 in 10.0 mi SW 8.1 mph - N/A   Clear
1:53 AM 64.0 °F - 48.9 °F 58% 29.91 in 10.0 mi SW 9.2 mph - N/A   Clear
2:53 AM 64.0 °F - 48.0 °F 56% 29.91 in 10.0 mi SSW 9.2 mph - N/A   Clear
3:53 AM 64.9 °F - 48.9 °F 56% 29.91 in 10.0 mi SW 11.5 mph - N/A   Clear
4:53 AM 60.1 °F - 48.9 °F 67% 29.92 in 10.0 mi SSW 9.2 mph - N/A   Clear
5:53 AM 57.9 °F - 48.9 °F 72% 29.92 in 10.0 mi SSW 10.4 mph - N/A   Clear
6:53 AM 59.0 °F - 48.9 °F 69% 29.94 in 10.0 mi SW 6.9 mph - N/A   Clear
7:53 AM 55.9 °F - 48.9 °F 77% 29.95 in 10.0 mi SSW 6.9 mph - N/A   Partly Cloudy
8:53 AM 62.1 °F - 52.0 °F 70% 29.97 in 10.0 mi SSW 5.8 mph - N/A   Partly Cloudy
9:53 AM 70.0 °F - 55.9 °F 61% 29.98 in 10.0 mi SSW 10.4 mph - N/A   Partly Cloudy
10:53 AM 75.9 °F - 57.0 °F 52% 29.98 in 10.0 mi SW 10.4 mph - N/A   Partly Cloudy
11:53 AM 81.0 °F 81.1 °F 57.9 °F 45% 29.98 in 10.0 mi SW 12.7 mph - N/A   Partly Cloudy
12:53 PM 84.9 °F 83.7 °F 55.9 °F 37% 29.95 in 10.0 mi SSW 17.3 mph 24.2 mph N/A   Partly Cloudy
1:53 PM 86.0 °F 84.5 °F 55.0 °F 35% 29.92 in 10.0 mi SSW 12.7 mph 20.7 mph N/A   Scattered Clouds
2:53 PM 87.1 °F - 51.1 °F 29% 29.89 in 10.0 mi SSW 12.7 mph 21.9 mph N/A   Scattered Clouds
3:53 PM 87.1 °F - 50.0 °F 28% 29.88 in 10.0 mi South 13.8 mph - N/A   Scattered Clouds
4:53 PM 86.0 °F - 46.0 °F 25% 29.87 in 10.0 mi South 13.8 mph - N/A   Clear
5:53 PM 84.0 °F - 42.1 °F 23% 29.87 in 10.0 mi South 12.7 mph - N/A   Clear
6:53 PM 79.0 °F - 46.0 °F 31% 29.87 in 10.0 mi South 9.2 mph - N/A   Clear
7:53 PM 75.9 °F - 46.9 °F 36% 29.89 in 10.0 mi SSE 10.4 mph - N/A   Clear
8:53 PM 75.0 °F - 51.1 °F 43% 29.90 in 10.0 mi South 11.5 mph - N/A   Clear
9:53 PM 73.9 °F - 54.0 °F 50% 29.92 in 10.0 mi South 10.4 mph - N/A   Clear
10:53 PM 71.1 °F - 55.0 °F 57% 29.92 in 10.0 mi South 9.2 mph - N/A   Clear
11:53 PM 71.1 °F - 55.9 °F 59% 29.92 in 10.0 mi South 11.5 mph - N/A   Clear